Temperature
19 19 19 19 22 24 24 23 24 23 23 22 22 23 23 22 22 21 17 17 17 17 17 17 18 18 18 18 18 18 18 18 18 18 18 18 18 18 18 18 18 18 18 18 18 18 18 18 18
19 19 19 21 24 24 23 23 23 23 22 22 22 22 22 20 19 18 17 17 17 17 17 17 17 18 18 18 18 18 18 18 18 17 17 17 17 17 17 17 17 17 17 17 17 17 17 18 18
19 19 21 23 24 24 23 23 23 22 22 22 21 21 21 19 18 17 17 17 17 17 17 17 17 17 18 18 18 17 17 17 17 17 17 17 17 17 17 17 17 17 17 17 17 17 17 17 17
19 20 22 24 23 23 23 23 23 22 22 21 21 21 19 18 17 17 17 17 17 17 17 17 17 17 17 17 17 17 17 17 17 17 17 17 17 17 17 17 17 17 17 17 17 17 17 17 17
19 22 23 23 23 23 23 23 23 23 22 21 21 21 19 17 17 17 17 17 17 17 17 17 17 17 17 17 17 17 17 17 17 17 17 17 17 17 17 17 17 17 17 17 17 17 17 17 17
21 23 23 23 22 23 23 22 22 23 22 21 21 21 18 17 17 17 17 17 17 17 17 17 17 17 17 17 17 17 17 16 16 16 16 16 16 16 16 16 17 17 17 17 17 17 17 17 17
22 23 23 23 22 22 22 22 22 22 22 21 20 20 18 17 17 17 17 17 17 17 17 17 17 17 17 17 17 17 16 16 16 16 16 16 16 16 16 16 16 16 16 16 16 16 17 17 17
21 23 23 23 22 22 22 22 21 22 21 20 20 20 18 17 16 16 16 16 16 17 17 17 17 16 16 16 16 16 16 16 16 16 16 16 16 16 16 16 16 16 16 16 16 16 16 16 16
20 22 22 22 22 22 22 22 21 20 20 19 19 19 18 17 17 17 16 16 16 16 17 17 17 16 16 16 16 16 16 16 16 16 16 16 16 16 16 16 16 16 16 16 16 16 16 16 16
21 22 22 22 22 22 22 22 21 21 20 19 18 17 17 17 17 17 17 17 17 17 16 16 17 16 16 16 16 16 16 16 16 16 16 16 16 16 16 16 16 16 16 16 16 16 16 16 16
22 22 21 21 21 21 21 21 21 21 21 20 19 17 17 17 17 17 17 17 17 17 16 16 16 16 16 16 16 16 16 16 16 16 16 16 16 16 16 16 16 16 16 16 16 16 16 16 16
21 21 21 21 20 21 21 21 21 20 20 19 19 18 17 17 17 17 17 17 17 16 16 16 16 16 16 16 16 16 16 16 16 16 16 16 16 16 16 16 16 16 16 16 16 16 16 16 16
21 21 20 20 20 20 21 20 20 19 19 18 18 17 17 17 17 17 17 17 17 17 16 16 16 16 17 16 16 16 16 16 16 16 16 16 16 16 16 16 16 16 16 16 16 16 16 16 16
21 21 20 20 20 21 21 21 20 19 18 18 17 17 17 17 17 17 17 17 17 17 17 16 16 16 16 17 16 16 16 16 16 16 16 16 16 16 16 16 16 16 16 16 16 16 16 16 16
21 21 21 21 21 21 21 21 21 19 19 18 18 17 17 17 17 17 17 17 17 17 17 16 16 16 16 16 16 16 16 16 16 16 16 16 16 16 16 16 16 16 16 16 16 16 15 15 15
22 22 21 21 21 21 21 21 21 19 19 19 18 17 17 17 17 17 17 17 17 17 17 16 16 16 16 16 16 16 16 16 16 16 16 16 16 16 16 16 16 16 16 16 15 15 15 15 15
22 22 21 21 21 21 22 21 21 19 19 19 19 18 17 17 17 17 17 17 17 17 17 16 16 16 16 16 16 16 16 16 16 16 16 16 16 16 16 16 16 16 15 15 15 15 15 15 15
22 22 22 21 22 21 21 21 21 20 19 20 19 19 18 18 18 17 17 17 17 17 17 16 16 16 16 16 16 16 16 16 16 16 15 16 16 16 16 15 15 15 15 15 15 15 15 15 15
23 22 22 22 22 21 21 21 21 20 20 20 20 19 19 18 18 17 17 17 17 17 17 16 16 16 16 16 16 16 16 16 15 15 15 15 15 15 15 15 15 15 15 15 15 15 15 15 15
22 22 22 22 22 22 22 22 22 21 20 20 20 20 19 19 18 17 17 17 17 17 17 16 16 16 16 16 16 16 16 15 15 15 15 15 15 15 15 15 15 15 15 15 15 15 15 15 15
22 22 22 22 21 21 21 21 22 22 21 20 20 20 20 19 19 18 17 17 17 17 17 16 16 16 16 16 16 16 15 15 15 15 15 15 15 15 15 15 15 15 15 15 15 15 15 15 15
21 22 22 22 21 21 22 22 22 22 21 21 20 20 20 19 18 18 17 17 17 17 17 16 16 16 16 16 16 16 16 16 15 15 15 15 15 15 15 15 15 15 15 15 15 15 15 15 15
22 22 22 22 22 22 22 22 23 22 21 21 21 20 20 19 19 18 18 17 17 17 17 17 16 16 16 16 16 15 15 15 15 15 15 15 15 15 15 15 15 15 15 15 15 15 15 15 15
21 21 21 21 22 21 22 22 22 23 22 22 21 20 19 19 18 18 18 17 17 17 17 16 16 16 16 16 16 15 15 15 15 15 15 15 15 15 15 15 15 15 15 15 15 15 15 14 14
22 21 21 21 21 21 22 21 22 23 23 22 22 21 20 19 19 18 17 17 17 17 17 17 16 16 16 16 16 16 15 15 15 15 15 15 15 15 15 15 15 15 15 15 15 14 14 14 14
22 22 21 20 21 22 21 22 23 23 22 21 21 20 19 19 18 18 17 17 17 17 17 17 17 16 16 16 16 15 15 15 15 15 15 15 15 15 15 15 15 15 15 15 14 14 14 14 14
22 22 22 22 21 21 22 22 23 22 22 21 21 20 19 19 18 18 17 17 17 17 17 17 17 16 16 16 16 16 15 15 15 15 15 15 15 15 15 15 15 15 15 15 14 14 14 14 14
22 22 21 21 21 21 22 22 22 22 22 21 21 20 19 18 18 18 17 17 17 17 17 17 17 16 16 16 16 16 15 15 15 15 15 15 15 15 15 15 15 15 15 14 14 14 14 14 14
21 21 21 21 21 21 21 22 23 22 22 22 21 20 19 18 18 17 17 17 17 17 17 17 17 16 16 16 16 16 15 15 15 15 15 15 15 15 15 15 15 15 14 14 14 14 14 14 14
22 22 22 21 21 21 21 22 22 22 22 21 21 20 19 18 18 17 17 17 16 16 17 17 17 16 16 16 16 15 15 15 15 15 15 15 15 15 15 14 14 14 14 14 14 14 14 14 13
Wind_Speed
5 3 3 3 4 2 2 3 2 4 3 3 4 3 4 5 3 4 4 6 7 8 9 10 10 9 9 10 10 10 11 11 11 11 11 11 10 11 11 11 11 10 10 10 10 10 10 10 9
3 2 3 3 3 3 3 3 4 4 5 5 5 4 5 6 5 5 5 6 8 8 8 10 10 9 9 9 10 10 10 11 11 11 11 11 10 11 11 11 10 10 10 10 10 10 9 9 9
3 2 2 2 2 2 4 4 5 6 6 4 4 4 4 5 4 4 5 8 8 8 9 10 10 10 9 9 9 10 10 10 10 11 11 11 10 10 11 11 10 10 10 10 10 9 9 9 8
3 2 2 2 4 2 3 4 5 7 5 4 5 6 5 4 3 5 8 8 9 8 9 11 9 10 9 9 9 9 10 10 10 11 11 10 10 10 11 11 10 10 10 10 9 9 9 8 8
2 2 3 4 3 3 3 3 4 5 4 4 5 6 5 4 6 9 8 8 8 8 9 11 9 9 9 9 9 9 9 9 9 10 10 10 10 10 10 10 10 10 10 10 9 9 9 8 8
2 2 3 5 4 4 3 3 4 5 6 5 5 7 5 4 7 8 8 7 7 8 9 10 9 9 9 9 9 9 9 9 9 9 10 9 9 10 10 10 10 9 9 9 9 9 9 9 9
2 1 2 4 5 4 4 3 4 5 6 4 4 5 6 5 6 7 8 7 7 8 8 8 8 9 10 9 9 9 9 8 9 8 9 9 9 9 9 9 9 9 8 8 8 9 9 9 9
1 1 3 3 5 4 4 4 4 4 5 5 3 4 6 7 7 8 8 8 8 8 7 7 7 7 8 10 10 8 8 8 8 8 8 8 9 9 8 8 9 8 7 7 8 8 9 9 9
2 2 3 3 4 4 5 5 4 4 6 4 3 4 7 12 10 9 8 7 7 7 6 6 6 6 7 8 9 8 8 7 7 8 7 5 6 7 7 11 9 8 7 7 8 8 8 8 9
1 2 1 1 1 4 6 5 5 5 6 5 6 7 11 12 11 10 9 8 8 7 6 5 5 6 6 6 6 5 6 6 6 6 5 5 6 6 7 9 8 7 6 7 7 6 6 3 6
1 1 2 2 2 4 6 4 4 5 4 4 8 11 12 11 10 9 8 7 7 7 6 5 5 5 5 5 5 4 4 4 5 5 5 5 5 5 5 5 6 5 4 5 6 4 5 5 5
2 3 2 3 4 4 5 5 4 2 2 4 8 11 12 11 10 8 8 7 7 7 6 5 4 4 5 5 5 4 4 4 4 4 4 4 4 3 4 4 4 4 4 4 3 3 5 5 5
3 3 4 4 4 5 6 5 4 3 4 7 10 11 10 9 9 7 7 7 7 6 6 5 4 4 4 4 3 4 4 3 4 4 3 4 4 3 4 4 3 3 4 3 3 3 4 4 5
4 5 4 3 4 3 5 5 3 3 6 9 10 10 9 8 8 8 7 6 6 6 6 6 5 5 4 4 4 4 4 4 4 4 4 4 4 3 3 3 3 3 3 3 2 4 4 4 4
5 5 4 2 2 2 3 3 2 5 7 9 9 9 9 7 8 8 7 7 6 6 6 6 5 5 4 4 4 3 3 4 4 4 4 4 4 3 3 2 3 3 3 3 3 4 4 4 4
5 4 3 2 2 2 3 2 3 5 7 8 8 9 8 7 7 7 6 6 6 6 6 6 5 5 5 4 4 3 4 4 3 3 3 3 3 3 3 2 2 2 2 3 3 3 3 4 3
5 5 4 4 3 3 4 3 4 5 7 7 8 9 9 8 7 7 6 6 6 6 6 6 6 5 5 4 4 4 4 3 3 3 3 3 3 3 3 3 2 3 3 2 3 3 3 4 3
5 5 5 4 4 5 5 4 4 6 7 7 8 9 9 9 9 8 7 7 6 6 6 6 6 5 5 4 4 3 3 3 3 3 3 3 3 3 3 3 3 3 3 2 2 4 3 3 2
4 5 4 4 4 5 6 6 6 7 8 8 9 9 10 10 9 8 8 8 7 7 7 7 7 6 5 4 3 3 2 2 2 3 3 3 3 3 3 2 2 2 2 2 3 3 4 3 2
6 5 5 3 3 4 6 7 7 8 9 9 9 10 10 10 10 9 9 9 9 9 8 8 7 6 6 4 4 3 3 2 2 2 3 3 3 3 2 2 2 2 2 2 3 2 2 2 1
6 6 5 4 3 5 5 7 8 8 9 9 9 9 10 11 11 10 10 10 9 9 9 7 8 7 7 6 4 4 3 3 3 3 2 2 2 2 2 2 2 2 2 2 2 2 2 1 1
6 4 5 5 5 4 5 4 5 7 9 10 10 10 10 11 10 10 10 10 10 9 9 9 8 8 7 7 6 7 5 4 3 3 3 3 3 3 2 2 2 2 2 3 2 2 1 1 1
3 3 5 6 6 6 6 6 3 6 8 9 10 10 10 10 11 11 11 10 9 9 8 8 9 8 7 7 7 7 5 4 3 3 4 4 3 3 3 3 2 2 2 2 2 1 0 1 1
6 5 4 5 5 6 5 6 4 4 6 8 10 10 10 10 10 11 10 10 9 8 8 8 9 8 8 7 7 7 6 5 5 4 4 3 3 3 3 3 2 2 2 2 2 1 1 0 1
8 6 4 4 5 4 3 6 4 1 3 5 8 10 10 10 11 11 11 10 9 9 9 9 10 9 9 8 7 7 7 7 6 5 4 3 3 3 3 3 2 2 2 2 2 2 1 1 1
9 8 4 3 3 3 4 5 2 1 2 3 6 8 9 10 11 11 11 11 10 10 10 10 10 10 9 8 8 7 7 5 4 5 4 4 3 3 3 3 2 2 2 2 2 1 1 1 1
8 8 6 5 5 5 4 4 3 2 3 4 5 8 9 10 11 11 11 11 10 11 11 11 11 10 10 9 8 7 6 6 5 5 5 3 3 3 3 3 3 3 3 2 2 2 2 2 2
6 6 6 5 4 4 4 4 2 3 5 6 6 8 8 9 10 11 11 11 10 10 10 10 11 11 10 9 8 6 6 6 5 5 5 4 4 4 4 4 4 3 3 3 3 2 2 2 2
7 8 7 6 6 5 4 1 1 1 3 5 6 7 8 9 10 11 10 10 10 10 10 10 10 10 10 10 9 8 7 6 6 5 5 5 4 4 4 4 4 3 3 4 4 3 3 3 3
8 9 9 8 6 6 5 2 3 1 2 4 5 6 7 8 9 10 10 10 10 10 10 10 11 11 10 9 9 8 8 7 6 6 5 5 5 5 4 4 4 4 3 3 4 4 3 3 3
Wind_Direction
169 173 196 220 222 186 121 103 109 116 103 80 81 74 80 60 38 70 103 126 121 122 122 125 117 111 105 102 101 101 104 105 105 105 105 105 103 100 97 96 94 92 90 86 83 82 81 80 77
164 172 217 235 228 168 126 122 113 91 108 112 92 76 81 70 57 88 119 122 125 120 120 116 116 111 104 99 99 103 105 105 104 103 102 102 102 100 98 96 94 90 88 85 82 82 82 80 76
162 217 241 219 193 153 122 122 112 106 108 112 100 71 62 70 77 93 118 130 125 119 118 117 120 116 110 106 102 102 104 105 103 103 100 97 97 98 97 94 93 88 85 83 80 79 80 81 79
195 208 221 200 138 95 107 120 129 132 114 92 112 96 82 61 67 109 124 129 124 121 118 114 120 119 115 113 108 104 101 104 104 103 101 97 95 95 93 90 89 86 82 79 77 77 80 80 80
222 231 191 157 137 121 117 122 150 143 125 112 114 103 89 60 91 113 120 120 123 120 117 116 115 119 118 115 110 106 103 103 103 100 98 96 93 92 91 87 85 83 79 75 73 75 79 78 77
215 232 197 165 145 135 133 143 155 130 119 120 118 112 96 96 110 116 116 115 114 115 112 112 114 115 112 109 108 105 103 103 100 97 97 95 91 89 88 84 83 80 76 73 73 73 75 77 78
248 223 189 157 152 147 136 150 160 140 126 120 125 116 120 123 117 120 118 115 112 114 110 110 113 120 123 114 106 102 99 97 94 93 94 93 88 88 88 87 83 82 79 77 76 75 77 79 80
292 221 178 180 169 148 137 141 126 125 112 111 125 131 143 150 138 130 119 118 115 115 114 112 109 115 123 120 110 102 100 100 97 91 91 98 106 103 101 99 83 82 82 79 79 81 83 86 83
248 217 191 187 182 147 146 141 118 109 119 114 89 87 126 141 141 135 127 124 118 114 113 112 113 110 115 113 117 117 112 107 119 113 111 130 116 110 110 80 78 77 77 77 80 87 92 97 95
224 211 166 100 158 146 148 140 138 142 128 122 114 109 127 141 147 143 141 137 132 124 117 114 113 117 119 117 119 116 109 106 104 100 107 113 108 98 95 103 91 85 88 97 90 105 128 123 99
169 125 109 101 114 133 142 133 140 149 137 146 150 144 146 148 149 147 144 137 131 129 125 124 122 117 117 120 116 104 97 101 108 109 114 117 113 114 105 105 115 108 120 100 109 128 88 82 75
132 92 91 94 120 132 137 137 125 119 99 110 133 143 149 152 153 152 147 139 136 132 129 129 126 126 125 123 116 114 106 106 108 120 113 117 109 100 95 98 88 90 86 81 86 79 91 83 79
139 115 95 94 108 118 119 124 119 107 102 118 128 139 146 154 151 150 146 143 141 138 140 138 141 133 122 112 122 125 112 105 110 113 126 115 112 103 105 101 93 77 79 95 91 93 88 81 71
130 125 110 109 121 122 117 114 128 122 131 133 139 148 154 156 158 156 153 152 151 149 149 146 148 132 130 132 131 112 112 118 119 120 119 116 106 102 102 99 87 76 74 80 97 93 92 83 80
151 137 123 113 142 156 150 123 152 147 146 145 149 152 153 162 165 166 162 163 159 155 155 149 145 135 130 122 103 101 109 111 111 117 119 111 99 96 92 87 96 91 93 105 96 93 96 99 96
179 187 179 158 179 182 202 193 153 156 163 161 161 159 160 165 173 171 167 167 163 162 160 154 153 150 137 122 115 106 103 103 109 122 118 104 102 97 89 86 93 99 103 106 105 106 105 100 91
191 196 191 181 194 191 205 206 173 178 182 178 172 168 168 169 177 177 176 174 170 170 164 162 157 154 145 133 125 110 109 109 112 118 110 104 101 104 103 88 101 120 113 106 112 105 102 99 87
189 194 191 190 183 195 203 209 192 194 199 196 187 181 178 180 183 182 179 176 175 174 168 164 156 159 148 144 140 122 104 108 107 110 111 97 100 105 114 125 125 113 112 113 116 109 97 102 108
204 200 195 191 193 213 219 222 215 206 207 203 196 192 188 189 182 178 180 177 181 178 175 170 168 162 156 151 153 140 128 123 114 108 110 112 109 106 109 122 114 113 112 123 129 121 122 118 114
209 207 199 187 189 230 233 238 227 216 214 213 205 197 193 189 183 179 184 184 187 185 184 180 177 173 170 164 156 145 137 127 114 112 108 109 108 112 114 121 125 131 121 124 122 136 130 111 93
215 226 219 209 200 228 246 243 227 218 214 214 215 207 199 195 191 185 188 189 187 188 188 187 184 179 175 170 159 149 142 146 141 140 126 108 107 112 112 103 123 126 133 123 134 147 150 126 79
219 225 225 213 223 230 238 262 221 206 205 209 211 207 203 197 195 190 190 193 192 191 191 191 186 183 175 172 175 174 177 165 151 144 135 132 123 117 116 112 122 129 121 133 150 143 137 150 139
213 198 219 231 242 250 232 257 227 196 213 210 208 205 202 196 194 191 193 195 193 189 190 191 187 182 176 179 176 183 179 166 149 145 141 142 125 119 123 119 121 121 124 129 126 135 159 201 288
180 183 199 223 239 245 232 242 254 207 222 212 204 200 197 194 192 191 190 189 185 180 182 186 186 179 175 177 178 182 171 166 160 160 150 149 135 127 124 126 125 122 120 121 121 127 123 51 12
205 218 219 216 221 241 208 242 253 243 231 218 202 194 191 191 193 191 187 185 182 178 180 182 181 177 176 179 180 178 173 173 171 168 164 164 148 141 132 133 134 120 111 112 118 123 108 112 71
207 221 237 248 251 253 217 239 238 247 234 212 196 189 185 187 192 192 190 187 183 181 181 181 180 179 177 181 179 174 169 173 172 180 174 171 159 145 135 138 131 121 117 120 113 117 111 109 94
206 217 241 265 266 253 226 233 237 208 207 200 193 185 184 186 189 191 190 189 184 182 182 183 181 180 178 178 175 176 174 173 171 175 176 166 160 152 146 144 134 125 122 116 121 111 111 95 76
231 207 212 237 256 250 238 234 234 194 203 195 194 189 186 184 188 191 190 189 185 183 183 184 183 180 176 176 175 174 175 173 175 176 172 166 164 156 154 146 141 135 128 124 119 114 98 109 91
197 205 216 228 251 264 262 217 96 258 215 203 193 185 182 183 186 190 190 188 184 181 180 181 182 180 178 179 176 174 174 175 175 177 174 170 163 160 159 151 147 141 139 135 130 125 123 125 119
221 220 217 229 234 245 267 273 95 292 225 205 193 183 180 180 181 183 183 182 180 180 179 181 182 180 178 177 177 177 175 176 178 177 175 172 166 165 164 154 147 139 138 140 136 129 127 122 115
Height
1523 1523 1524 1525 1524 1520 1522 1522 1519 1521 1523 1526 1526 1525 1526 1528 1531 1539 1539 1538 1540 1541 1542 1543 1543 1544 1545 1546 1547 1547 1548 1548 1549 1549 1549 1550 1550 1550 1551 1551 1552 1552 1552 1552 1552 1552 1552 1552 1552
1523 1524 1526 1525 1520 1522 1525 1521 1522 1523 1526 1527 1528 1529 1529 1533 1536 1537 1538 1539 1541 1542 1543 1544 1544 1545 1547 1547 1548 1549 1549 1550 1550 1550 1550 1551 1551 1552 1552 1552 1553 1553 1553 1553 1553 1553 1553 1553 1553
1523 1524 1526 1521 1519 1521 1524 1522 1523 1526 1528 1528 1530 1531 1533 1536 1538 1538 1539 1540 1542 1543 1544 1545 1546 1547 1548 1548 1549 1550 1550 1551 1551 1551 1552 1552 1552 1553 1554 1554 1554 1554 1555 1555 1555 1555 1555 1554 1554
1525 1526 1525 1521 1522 1522 1522 1523 1524 1526 1529 1529 1530 1533 1536 1539 1539 1539 1540 1542 1543 1544 1546 1546 1547 1548 1549 1550 1550 1551 1552 1552 1552 1553 1553 1553 1554 1554 1555 1555 1555 1556 1556 1556 1556 1556 1556 1556 1555
1525 1524 1521 1522 1523 1523 1523 1525 1526 1526 1528 1530 1531 1534 1538 1540 1540 1541 1542 1543 1544 1546 1547 1548 1548 1549 1550 1551 1552 1552 1553 1553 1554 1554 1555 1555 1555 1555 1556 1556 1557 1557 1557 1557 1557 1557 1557 1557 1557
1526 1522 1521 1523 1524 1524 1525 1526 1527 1527 1529 1532 1533 1535 1539 1541 1541 1542 1543 1544 1546 1547 1548 1549 1549 1550 1551 1552 1553 1554 1554 1555 1555 1556 1556 1556 1557 1557 1557 1558 1558 1558 1559 1559 1559 1559 1558 1558 1558
1525 1521 1521 1522 1525 1525 1526 1528 1528 1528 1530 1533 1534 1536 1540 1542 1543 1544 1544 1545 1547 1548 1549 1550 1551 1552 1553 1553 1554 1555 1555 1556 1556 1557 1557 1558 1558 1558 1559 1559 1560 1560 1560 1560 1560 1560 1560 1559 1559
1525 1523 1522 1522 1524 1526 1527 1528 1530 1530 1533 1535 1536 1537 1540 1542 1543 1544 1546 1547 1548 1549 1551 1552 1553 1554 1555 1556 1555 1556 1557 1557 1558 1558 1559 1559 1560 1560 1560 1561 1561 1561 1562 1562 1562 1562 1561 1561 1561
1526 1524 1524 1524 1525 1526 1528 1529 1532 1533 1534 1536 1537 1538 1540 1542 1544 1545 1547 1548 1549 1550 1552 1553 1554 1555 1556 1557 1557 1558 1558 1559 1560 1560 1560 1561 1563 1563 1563 1563 1563 1563 1563 1563 1563 1563 1563 1563 1563
1525 1524 1525 1525 1524 1525 1528 1529 1531 1533 1535 1537 1538 1540 1541 1543 1545 1546 1548 1549 1550 1551 1553 1554 1555 1555 1557 1558 1559 1560 1561 1561 1562 1562 1562 1563 1564 1564 1564 1564 1564 1565 1565 1565 1565 1565 1565 1565 1565
1525 1525 1526 1526 1527 1527 1529 1531 1532 1532 1534 1536 1538 1540 1542 1544 1546 1547 1549 1550 1551 1552 1553 1555 1555 1557 1558 1559 1560 1561 1562 1562 1563 1563 1564 1564 1565 1566 1567 1567 1567 1567 1567 1567 1567 1567 1567 1567 1567
1526 1527 1527 1528 1529 1529 1530 1532 1533 1534 1536 1537 1539 1540 1542 1544 1546 1548 1550 1551 1553 1554 1555 1556 1557 1558 1559 1561 1562 1562 1563 1563 1564 1565 1565 1566 1567 1568 1568 1568 1568 1568 1568 1568 1568 1568 1569 1568 1568
1527 1528 1529 1530 1530 1530 1531 1532 1534 1536 1538 1539 1540 1542 1543 1545 1547 1549 1551 1552 1554 1555 1556 1557 1558 1559 1560 1561 1562 1564 1564 1565 1566 1566 1567 1568 1568 1569 1569 1569 1569 1570 1570 1569 1569 1570 1569 1569 1569
1528 1529 1529 1530 1531 1531 1531 1533 1535 1537 1538 1540 1541 1543 1545 1546 1548 1550 1551 1553 1554 1556 1557 1558 1559 1560 1562 1563 1564 1564 1565 1566 1567 1567 1568 1569 1570 1570 1570 1571 1570 1571 1571 1570 1570 1571 1570 1570 1570
1529 1529 1530 1531 1531 1532 1532 1533 1535 1537 1539 1540 1542 1544 1545 1547 1549 1550 1552 1553 1555 1556 1558 1559 1560 1562 1563 1564 1564 1565 1566 1567 1568 1568 1569 1570 1570 1571 1571 1572 1571 1571 1571 1571 1571 1571 1571 1571 1571
1527 1528 1531 1531 1531 1532 1533 1535 1535 1538 1539 1540 1542 1544 1545 1547 1549 1551 1552 1554 1555 1557 1558 1560 1561 1562 1563 1564 1565 1566 1567 1568 1568 1569 1570 1571 1571 1572 1572 1572 1572 1572 1572 1572 1572 1572 1572 1572 1572
1526 1528 1530 1530 1530 1530 1531 1533 1535 1537 1538 1540 1541 1543 1545 1547 1549 1551 1552 1554 1555 1557 1558 1560 1561 1563 1564 1564 1565 1566 1567 1568 1569 1570 1570 1571 1572 1572 1572 1572 1572 1573 1573 1573 1573 1573 1573 1573 1573
1526 1525 1528 1529 1529 1530 1530 1531 1533 1536 1538 1538 1540 1542 1544 1545 1548 1550 1552 1553 1555 1557 1558 1560 1561 1562 1564 1565 1566 1566 1567 1568 1569 1570 1570 1571 1572 1572 1573 1573 1573 1574 1574 1573 1574 1573 1573 1573 1573
1521 1524 1526 1527 1528 1529 1529 1529 1531 1533 1535 1536 1538 1540 1542 1544 1547 1549 1551 1553 1554 1556 1558 1559 1561 1562 1563 1564 1566 1567 1568 1569 1569 1570 1570 1571 1572 1572 1573 1574 1574 1574 1574 1574 1574 1574 1574 1574 1574
1523 1525 1526 1527 1527 1528 1528 1527 1527 1530 1532 1533 1535 1537 1539 1542 1545 1547 1549 1551 1553 1555 1557 1558 1560 1561 1563 1564 1565 1566 1568 1569 1569 1570 1570 1571 1572 1573 1573 1574 1574 1574 1574 1574 1574 1574 1575 1575 1575
1523 1524 1524 1526 1528 1527 1528 1527 1524 1526 1529 1531 1533 1535 1537 1539 1542 1545 1547 1550 1551 1553 1555 1557 1559 1560 1562 1563 1565 1566 1567 1568 1570 1570 1570 1571 1572 1572 1573 1574 1574 1574 1575 1575 1575 1575 1575 1575 1575
1524 1522 1523 1525 1528 1527 1527 1528 1520 1520 1524 1527 1530 1532 1534 1537 1540 1543 1545 1547 1550 1552 1554 1556 1558 1559 1561 1562 1564 1565 1567 1569 1569 1570 1571 1571 1572 1572 1573 1574 1574 1575 1575 1575 1575 1576 1575 1575 1575
1521 1522 1522 1523 1525 1526 1524 1526 1517 1516 1520 1522 1525 1528 1531 1534 1537 1540 1543 1545 1547 1550 1552 1554 1556 1558 1560 1561 1563 1565 1566 1568 1569 1570 1571 1572 1572 1572 1573 1574 1574 1575 1575 1575 1575 1576 1575 1575 1575
1522 1523 1523 1523 1524 1530 1522 1524 1519 1513 1514 1516 1520 1524 1528 1531 1534 1537 1540 1543 1545 1548 1550 1552 1555 1557 1558 1560 1562 1564 1565 1567 1568 1569 1570 1571 1572 1572 1573 1574 1574 1575 1575 1576 1575 1575 1575 1575 1575
1520 1524 1529 1531 1531 1526 1519 1522 1516 1509 1511 1513 1516 1520 1524 1528 1531 1535 1537 1540 1543 1545 1548 1550 1553 1555 1557 1559 1562 1563 1564 1566 1567 1569 1570 1571 1572 1573 1573 1574 1574 1575 1575 1575 1575 1575 1575 1575 1575
1517 1519 1528 1534 1530 1522 1519 1519 1510 1509 1511 1513 1515 1518 1522 1525 1528 1532 1535 1538 1540 1543 1546 1548 1551 1553 1556 1558 1561 1562 1563 1565 1566 1568 1569 1570 1571 1572 1572 1573 1574 1574 1574 1575 1575 1575 1575 1575 1575
1515 1516 1515 1520 1520 1523 1515 1511 1508 1509 1510 1512 1514 1517 1519 1523 1526 1529 1532 1535 1538 1541 1544 1546 1549 1552 1554 1557 1559 1561 1563 1564 1565 1567 1568 1569 1571 1571 1572 1573 1573 1574 1574 1574 1575 1575 1575 1575 1575
1512 1513 1517 1521 1527 1525 1516 1512 1509 1506 1507 1509 1512 1514 1517 1520 1523 1526 1530 1533 1536 1538 1541 1544 1547 1550 1553 1555 1557 1559 1561 1563 1564 1566 1567 1568 1570 1570 1571 1572 1573 1573 1573 1574 1574 1574 1574 1574 1574
1514 1514 1514 1516 1516 1520 1520 1512 1502 1503 1504 1507 1509 1512 1515 1518 1521 1524 1527 1530 1533 1536 1539 1542 1545 1548 1551 1554 1556 1558 1560 1562 1563 1565 1566 1567 1569 1569 1571 1571 1572 1573 1573 1573 1573 1573 1574 1574 1574
1508 1508 1510 1517 1516 1514 1515 1511 1501 1503 1504 1506 1508 1511 1514 1517 1519 1522 1525 1528 1531 1534 1537 1540 1544 1547 1549 1552 1554 1556 1558 1560 1562 1564 1565 1566 1568 1569 1570 1571 1571 1572 1572 1573 1573 1573 1573 1574 1574